| time (UTC) | temp F | wind direction | speed MPH | gust MPH | rain 1hr in | rain 24hr in | rain mn in | humidity % | barometer mb |
| 20260504045004 | 38 | 256 | 0.0 | 0.0 | 0.00 | 0.00 | 0.00 | 53 | 1004.6 |
| 20260504044504 | 38 | 256 | 0.0 | 0.0 | 0.00 | 0.00 | 0.00 | 53 | 1004.6 |
| 20260504043503 | 38 | 256 | 1.0 | 3.0 | 0.00 | 0.00 | 0.00 | 52 | 1004.7 |
| 20260504043004 | 39 | 256 | 3.0 | 3.0 | 0.00 | 0.00 | 0.00 | 52 | 1004.7 |
| 20260504042504 | 39 | 256 | 0.0 | 3.0 | 0.00 | 0.00 | 0.00 | 52 | 1004.7 |
| 20260504041504 | 39 | 256 | 1.0 | 5.0 | 0.00 | 0.00 | 0.00 | 51 | 1004.8 |
| 20260504041004 | 39 | 256 | 2.0 | 3.0 | 0.00 | 0.00 | 0.00 | 50 | 1004.9 |
| 20260504040503 | 40 | 256 | 1.0 | 3.0 | 0.00 | 0.00 | 0.00 | 51 | 1004.9 |
| 20260504040003 | 40 | 256 | 1.0 | 3.0 | 0.00 | 0.00 | 0.00 | 50 | 1005.0 |
| 20260504035003 | 41 | 256 | 0.0 | 3.0 | 0.00 | 0.00 | 0.00 | 49 | 1004.8 |
| 20260504034504 | 41 | 256 | 2.0 | 3.0 | 0.00 | 0.00 | 0.00 | 49 | 1004.8 |
| 20260504033504 | 42 | 256 | 3.0 | 5.0 | 0.00 | 0.00 | 0.00 | 47 | 1004.8 |
| 20260504033003 | 43 | 256 | 0.0 | 3.0 | 0.00 | 0.00 | 0.00 | 47 | 1004.7 |
| 20260504032503 | 43 | 256 | 0.0 | 0.0 | 0.00 | 0.00 | 0.00 | 46 | 1004.6 |
| 20260504031504 | 44 | 256 | 0.0 | 0.0 | 0.00 | 0.00 | 0.00 | 45 | 1004.6 |
| 20260504031003 | 44 | 256 | 0.0 | 0.0 | 0.00 | 0.00 | 0.00 | 45 | 1004.5 |
| 20260504030503 | 44 | 256 | 0.0 | 3.0 | 0.00 | 0.00 | 0.00 | 44 | 1004.5 |
| 20260504030004 | 45 | 256 | 2.0 | 3.0 | 0.00 | 0.00 | 0.00 | 43 | 1004.5 |
| 20260504025503 | 45 | 256 | 2.0 | 5.0 | 0.00 | 0.00 | 0.00 | 44 | 1004.4 |
| 20260504025005 | 46 | 256 | 0.0 | 0.0 | 0.00 | 0.00 | 0.00 | 43 | 1004.4 |
| 20260504024503 | 46 | 256 | 2.0 | 3.0 | 0.00 | 0.00 | 0.00 | 42 | 1004.3 |
| 20260504024003 | 47 | 256 | 1.0 | 3.0 | 0.00 | 0.00 | 0.00 | 41 | 1004.3 |
| 20260504023503 | 47 | 256 | 3.0 | 3.0 | 0.00 | 0.00 | 0.00 | 41 | 1004.2 |
| 20260504023004 | 48 | 256 | 2.0 | 3.0 | 0.00 | 0.00 | 0.00 | 39 | 1004.2 |
| 20260504022504 | 49 | 256 | 0.0 | 0.0 | 0.00 | 0.00 | 0.00 | 39 | 1004.1 |
| 20260504022003 | 49 | 256 | 0.0 | 2.0 | 0.00 | 0.00 | 0.00 | 38 | 1004.1 |
| 20260504021004 | 51 | 256 | 0.0 | 2.0 | 0.00 | 0.00 | 0.00 | 37 | 1004.0 |
| 20260504020004 | 52 | 256 | 0.0 | 0.0 | 0.00 | 0.00 | 0.00 | 34 | 1003.9 |
| 20260504015504 | 52 | 256 | 0.0 | 0.0 | 0.00 | 0.00 | 0.00 | 33 | 1003.8 |
| 20260504015004 | 53 | 256 | 0.0 | 0.0 | 0.00 | 0.00 | 0.00 | 32 | 1003.7 |
| 20260504014504 | 53 | 256 | 0.0 | 0.0 | 0.00 | 0.00 | 0.00 | 33 | 1003.3 |
| 20260504014004 | 54 | 256 | 0.0 | 0.0 | 0.00 | 0.00 | 0.00 | 31 | 1003.3 |
| 20260504013504 | 54 | 256 | 0.0 | 0.0 | 0.00 | 0.00 | 0.00 | 31 | 1003.2 |
| 20260504013004 | 54 | 256 | 0.0 | 0.0 | 0.00 | 0.00 | 0.00 | 31 | 1003.3 |
| 20260504012504 | 54 | 256 | 0.0 | 0.0 | 0.00 | 0.00 | 0.00 | 31 | 1003.3 |
| 20260504012004 | 55 | 256 | 0.0 | 3.0 | 0.00 | 0.00 | 0.00 | 31 | 1003.3 |
| 20260504011503 | 55 | 256 | 3.0 | 5.0 | 0.00 | 0.00 | 0.00 | 31 | 1003.4 |
| 20260504011003 | 55 | 256 | 3.0 | 5.0 | 0.00 | 0.00 | 0.00 | 31 | 1003.4 |
| 20260504010504 | 55 | 246 | 3.0 | 7.0 | 0.00 | 0.00 | 0.00 | 30 | 1003.4 |
| 20260504010004 | 55 | 237 | 5.0 | 9.0 | 0.00 | 0.00 | 0.00 | 30 | 1003.3 |
| 20260504005504 | 55 | 235 | 2.0 | 6.0 | 0.00 | 0.00 | 0.00 | 30 | 1003.4 |
| 20260504005004 | 55 | 255 | 7.0 | 15.0 | 0.00 | 0.00 | 0.00 | 30 | 1003.6 |
| 20260504004503 | 56 | 246 | 9.0 | 14.0 | 0.00 | 0.00 | 0.00 | 30 | 1003.5 |
| 20260504004004 | 56 | 263 | 4.0 | 16.0 | 0.00 | 0.00 | 0.00 | 30 | 1003.5 |
| 20260504003504 | 57 | 234 | 12.0 | 16.0 | 0.00 | 0.00 | 0.00 | 29 | 1003.5 |
| 20260504003004 | 57 | 261 | 13.0 | 21.0 | 0.00 | 0.00 | 0.00 | 29 | 1003.6 |
| 20260504002503 | 56 | 244 | 11.0 | 20.0 | 0.00 | 0.00 | 0.00 | 30 | 1003.5 |
| 20260504002004 | 56 | 249 | 12.0 | 20.0 | 0.00 | 0.00 | 0.00 | 30 | 1003.7 |
| 20260504001504 | 56 | 245 | 10.0 | 20.0 | 0.00 | 0.00 | 0.00 | 30 | 1003.9 |
| 20260504001004 | 56 | 246 | 11.0 | 17.0 | 0.00 | 0.00 | 0.00 | 30 | 1003.8 |
| 20260504000504 | 57 | 250 | 12.0 | 20.0 | 0.00 | 0.00 | 0.00 | 29 | 1003.8 |
| 20260504000004 | 57 | 237 | 10.0 | 20.0 | 0.00 | 0.00 | 0.00 | 29 | 1003.8 |
| 20260503235503 | 57 | 238 | 10.0 | 24.0 | 0.00 | 0.00 | 0.00 | 28 | 1003.9 |
| 20260503235003 | 58 | 243 | 12.0 | 20.0 | 0.00 | 0.00 | 0.00 | 26 | 1004.0 |
| 20260503234504 | 60 | 232 | 13.0 | 20.0 | 0.00 | 0.00 | 0.00 | 24 | 1003.8 |
| 20260503234004 | 61 | 273 | 5.0 | 16.0 | 0.00 | 0.00 | 0.00 | 20 | 1003.9 |
| 20260503233503 | 61 | 274 | 10.0 | 17.0 | 0.00 | 0.00 | 0.00 | 20 | 1003.8 |
| 20260503233004 | 60 | 272 | 9.0 | 20.0 | 0.00 | 0.00 | 0.00 | 21 | 1003.9 |
| 20260503232504 | 59 | 261 | 3.0 | 10.0 | 0.00 | 0.00 | 0.00 | 23 | 1003.8 |
| 20260503232004 | 59 | 297 | 3.0 | 8.0 | 0.00 | 0.00 | 0.00 | 24 | 1003.9 |
| 20260503231504 | 59 | 243 | 3.0 | 10.0 | 0.00 | 0.00 | 0.00 | 23 | 1003.5 |
| 20260503231004 | 59 | 28 | 2.0 | 14.0 | 0.00 | 0.00 | 0.00 | 23 | 1003.6 |
| 20260503230503 | 59 | 337 | 6.0 | 10.0 | 0.00 | 0.00 | 0.00 | 23 | 1003.8 |
| 20260503230004 | 60 | 148 | 3.0 | 9.0 | 0.00 | 0.00 | 0.00 | 22 | 1003.8 |
| 20260503225503 | 59 | 180 | 6.0 | 13.0 | 0.00 | 0.00 | 0.00 | 24 | 1004.0 |
| 20260503224504 | 57 | 245 | 9.0 | 18.0 | 0.00 | 0.00 | 0.00 | 26 | 1004.0 |
| 20260503224004 | 58 | 246 | 18.0 | 26.0 | 0.00 | 0.00 | 0.00 | 25 | 1004.1 |
| 20260503223504 | 58 | 255 | 11.0 | 15.0 | 0.00 | 0.00 | 0.00 | 25 | 1004.1 |
| 20260503223004 | 59 | 231 | 11.0 | 20.0 | 0.00 | 0.00 | 0.00 | 24 | 1003.9 |
| 20260503222504 | 60 | 233 | 13.0 | 21.0 | 0.00 | 0.00 | 0.00 | 23 | 1003.8 |
| 20260503221004 | 60 | 241 | 3.0 | 18.0 | 0.00 | 0.00 | 0.00 | 18 | 1004.2 |
| 20260503220004 | 62 | 242 | 8.0 | 12.0 | 0.00 | 0.00 | 0.00 | 17 | 1004.2 |
| 20260503215504 | 62 | 261 | 3.0 | 6.0 | 0.00 | 0.00 | 0.00 | 17 | 1004.2 |
| 20260503215003 | 62 | 284 | 2.0 | 7.0 | 0.00 | 0.00 | 0.00 | 17 | 1004.2 |
| 20260503214504 | 62 | 335 | 9.0 | 14.0 | 0.00 | 0.00 | 0.00 | 18 | 1004.3 |
| 20260503214004 | 62 | 275 | 6.0 | 12.0 | 0.00 | 0.00 | 0.00 | 19 | 1004.3 |
| 20260503212504 | 64 | 294 | 5.0 | 22.0 | 0.00 | 0.00 | 0.00 | 16 | 1004.6 |
| 20260503212004 | 64 | 310 | 7.0 | 20.0 | 0.00 | 0.00 | 0.00 | 17 | 1004.5 |
| 20260503211504 | 64 | 321 | 9.0 | 18.0 | 0.00 | 0.00 | 0.00 | 17 | 1004.7 |
| 20260503211003 | 64 | 300 | 7.0 | 18.0 | 0.00 | 0.00 | 0.00 | 16 | 1004.7 |
| 20260503210504 | 65 | 289 | 4.0 | 15.0 | 0.00 | 0.00 | 0.00 | 16 | 1004.6 |
| 20260503210005 | 66 | 258 | 5.0 | 15.0 | 0.00 | 0.00 | 0.00 | 16 | 1004.8 |
| 20260503205503 | 65 | 331 | 13.0 | 22.0 | 0.00 | 0.00 | 0.00 | 18 | 1004.8 |
| 20260503204504 | 62 | 236 | 10.0 | 18.0 | 0.00 | 0.00 | 0.00 | 16 | 1005.0 |
| 20260503203503 | 64 | 259 | 12.0 | 24.0 | 0.00 | 0.00 | 0.00 | 16 | 1005.0 |
| 20260503203004 | 64 | 245 | 10.0 | 17.0 | 0.00 | 0.00 | 0.00 | 15 | 1005.2 |
| 20260503202504 | 64 | 240 | 10.0 | 16.0 | 0.00 | 0.00 | 0.00 | 16 | 1005.6 |
| 20260503202004 | 65 | 244 | 12.0 | 26.0 | 0.00 | 0.00 | 0.00 | 14 | 1005.5 |
| 20260503201503 | 65 | 248 | 7.0 | 23.0 | 0.00 | 0.00 | 0.00 | 14 | 1005.4 |
| 20260503201004 | 64 | 344 | 7.0 | 20.0 | 0.00 | 0.00 | 0.00 | 15 | 1005.7 |
| 20260503200504 | 64 | 271 | 13.0 | 26.0 | 0.00 | 0.00 | 0.00 | 15 | 1005.7 |
| 20260503200004 | 64 | 271 | 10.0 | 23.0 | 0.00 | 0.00 | 0.00 | 15 | 1005.8 |
| 20260503195004 | 63 | 263 | 10.0 | 20.0 | 0.00 | 0.00 | 0.00 | 16 | 1005.8 |
| 20260503194504 | 64 | 273 | 11.0 | 22.0 | 0.00 | 0.00 | 0.00 | 16 | 1006.1 |
| 20260503194004 | 64 | 275 | 14.0 | 26.0 | 0.00 | 0.00 | 0.00 | 15 | 1006.2 |
| 20260503193504 | 64 | 270 | 12.0 | 21.0 | 0.00 | 0.00 | 0.00 | 15 | 1006.1 |
| 20260503193004 | 64 | 278 | 13.0 | 24.0 | 0.00 | 0.00 | 0.00 | 15 | 1006.2 |
| 20260503192003 | 63 | 296 | 14.0 | 21.0 | 0.00 | 0.00 | 0.00 | 16 | 1006.2 |
| 20260503191504 | 62 | 273 | 12.0 | 16.0 | 0.00 | 0.00 | 0.00 | 18 | 1006.3 |
| 20260503191004 | 62 | 232 | 17.0 | 28.0 | 0.00 | 0.00 | 0.00 | 16 | 1006.2 |
| 20260503190504 | 63 | 244 | 8.0 | 17.0 | 0.00 | 0.00 | 0.00 | 17 | 1006.3 |
| 20260503190004 | 62 | 300 | 8.0 | 17.0 | 0.00 | 0.00 | 0.00 | 18 | 1006.3 |
| 20260503185504 | 61 | 293 | 12.0 | 20.0 | 0.00 | 0.00 | 0.00 | 17 | 1006.5 |
| 20260503185004 | 61 | 277 | 15.0 | 24.0 | 0.00 | 0.00 | 0.00 | 17 | 1006.8 |
| 20260503184004 | 61 | 265 | 11.0 | 23.0 | 0.00 | 0.00 | 0.00 | 18 | 1006.8 |
| 20260503183503 | 60 | 267 | 11.0 | 17.0 | 0.00 | 0.00 | 0.00 | 18 | 1007.0 |
| 20260503183004 | 60 | 252 | 9.0 | 23.0 | 0.00 | 0.00 | 0.00 | 17 | 1007.1 |
| 20260503182504 | 59 | 282 | 13.0 | 24.0 | 0.00 | 0.00 | 0.00 | 18 | 1007.5 |
| 20260503181504 | 59 | 260 | 13.0 | 23.0 | 0.00 | 0.00 | 0.00 | 19 | 1007.5 |
| 20260503181004 | 58 | 253 | 9.0 | 14.0 | 0.00 | 0.00 | 0.00 | 19 | 1007.5 |
| 20260503180004 | 57 | 269 | 7.0 | 16.0 | 0.00 | 0.00 | 0.00 | 19 | 1007.6 |
| 20260503175504 | 57 | 262 | 8.0 | 15.0 | 0.00 | 0.00 | 0.00 | 20 | 1007.7 |
| 20260503175004 | 57 | 265 | 6.0 | 14.0 | 0.00 | 0.00 | 0.00 | 21 | 1007.7 |
| 20260503174503 | 57 | 254 | 8.0 | 15.0 | 0.00 | 0.00 | 0.00 | 21 | 1007.7 |
| 20260503174004 | 57 | 311 | 3.0 | 10.0 | 0.00 | 0.00 | 0.00 | 23 | 1007.9 |
| 20260503173503 | 56 | 253 | 5.0 | 10.0 | 0.00 | 0.00 | 0.00 | 24 | 1008.0 |
| 20260503173003 | 56 | 238 | 5.0 | 12.0 | 0.00 | 0.00 | 0.00 | 24 | 1008.1 |
| 20260503151004 | 56 | 236 | 6.0 | 14.0 | 0.00 | 0.00 | 0.00 | 22 | 1008.8 |
| 20260503150504 | 56 | 256 | 5.0 | 13.0 | 0.00 | 0.00 | 0.00 | 21 | 1008.9 |
| 20260503130503 | 33 | 348 | 1.0 | 2.0 | 0.00 | 0.00 | 0.00 | 69 | 1010.5 |
| 20260503110504 | 29 | 348 | 0.0 | 0.0 | 0.00 | 0.00 | 0.00 | 69 | 1010.0 |
| 20260503090504 | 31 | 348 | 0.0 | 1.0 | 0.00 | 0.00 | 0.00 | 63 | 1011.0 |
| 20260503081504 | 33 | 348 | 0.0 | 2.0 | 0.00 | 0.00 | 0.00 | 60 | 1011.2 |
| 20260503081004 | 33 | 348 | 1.0 | 3.0 | 0.00 | 0.00 | 0.00 | 60 | 1011.2 |
| 20260503072003 | 35 | 348 | 1.0 | 2.0 | 0.00 | 0.00 | 0.00 | 58 | 1011.9 |
| 20260503071503 | 35 | 348 | 2.0 | 3.0 | 0.00 | 0.00 | 0.00 | 58 | 1011.9 |
| 20260503071004 | 35 | 348 | 3.0 | 3.0 | 0.00 | 0.00 | 0.00 | 57 | 1012.0 |
| 20260503070504 | 36 | 49 | 0.0 | 1.0 | 0.00 | 0.00 | 0.00 | 57 | 1012.0 |
| 20260503055004 | 37 | 280 | 0.0 | 0.0 | 0.00 | 0.00 | 0.00 | 52 | 1012.7 |
| 20260503054503 | 37 | 280 | 0.0 | 3.0 | 0.00 | 0.00 | 0.00 | 53 | 1012.6 |
| 20260503054004 | 37 | 280 | 1.0 | 3.0 | 0.00 | 0.00 | 0.00 | 52 | 1012.7 |
| 20260503053504 | 37 | 280 | 3.0 | 3.0 | 0.00 | 0.00 | 0.00 | 51 | 1012.6 |
| 20260503053004 | 37 | 280 | 2.0 | 3.0 | 0.00 | 0.00 | 0.00 | 52 | 1012.5 |
| 20260503052504 | 37 | 280 | 2.0 | 3.0 | 0.00 | 0.00 | 0.00 | 51 | 1012.4 |
| 20260503052004 | 37 | 280 | 1.0 | 2.0 | 0.00 | 0.00 | 0.00 | 51 | 1012.3 |
| 20260503051503 | 37 | 280 | 1.0 | 3.0 | 0.00 | 0.00 | 0.00 | 50 | 1012.2 |
| 20260503051004 | 37 | 280 | 1.0 | 3.0 | 0.00 | 0.00 | 0.00 | 51 | 1012.2 |
| 20260503050504 | 38 | 280 | 1.0 | 3.0 | 0.00 | 0.00 | 0.00 | 51 | 1012.1 |
| 20260503050005 | 38 | 280 | 3.0 | 3.0 | 0.00 | 0.00 | 0.00 | 50 | 1012.1 |